This is the latest recevied weather packets stored in our database for station/object N5PA. If no packets are shown the sender has not sent any weather packets the latest 10 day(s).
| Time | Temp. | Humidity | Pressure | Rain* | Wind** | Luminosity | Snow |
|---|---|---|---|---|---|---|---|
| 1778130605 | 21.67° C | 26% | 1009.9 hPa | 2.29 mm | - | 997 W/m² | - |
| 1778130305 | 21.67° C | 27% | 1010.8 hPa | 1.27 mm | - | 997 W/m² | - |
| 1778130006 | 21.67° C | 27% | 1010.6 hPa | 0.76 mm | - | 997 W/m² | - |
| 1778129707 | 21.67° C | 28% | 1009.8 hPa | 0.51 mm | - | 997 W/m² | - |
| 1778129407 | 21.67° C | 28% | 1010.6 hPa | 0.51 mm | - | 997 W/m² | - |
| 1778129106 | 22.22° C | 29% | 1010.8 hPa | 0.51 mm | - | 997 W/m² | - |
| 1778128807 | 21.67° C | 29% | 1011.1 hPa | 0.25 mm | - | 995 W/m² | - |
| 1778128506 | 22.22° C | 30% | 1011.2 hPa | 0.25 mm | - | 997 W/m² | - |
| 1778128206 | 22.22° C | 30% | 1011.1 hPa | 0.51 mm | - | 997 W/m² | - |
| 1778127906 | 22.22° C | 30% | 1011.1 hPa | 1.52 mm | - | 997 W/m² | - |
| 1778127606 | 22.22° C | 31% | 1011 hPa | 1.27 mm | - | 998 W/m² | - |
| 1778127306 | 22.22° C | 29% | 1011.4 hPa | 1.27 mm | - | 995 W/m² | - |
| 1778127007 | 22.78° C | 26% | 1010.8 hPa | 1.27 mm | - | 993 W/m² | - |
| 1778126707 | 22.78° C | 25% | 1011 hPa | 1.27 mm | - | 995 W/m² | - |
| 1778126406 | 22.78° C | 25% | 1010.7 hPa | 1.27 mm | - | 993 W/m² | - |
| 1778126105 | 22.78° C | 24% | 1011 hPa | 1.52 mm | - | 993 W/m² | - |
| 1778125806 | 22.78° C | 24% | 1011 hPa | 1.52 mm | - | 991 W/m² | - |
| 1778125507 | 22.78° C | 24% | 1010.8 hPa | 1.52 mm | - | 995 W/m² | - |
| 1778125204 | 22.78° C | 24% | 1010.6 hPa | 1.52 mm | - | 990 W/m² | - |
| 1778124905 | 22.78° C | 25% | 1010.4 hPa | 1.52 mm | - | 995 W/m² | - |
| 1778124606 | 22.78° C | 25% | 1010.5 hPa | 1.27 mm | - | 995 W/m² | - |
| 1778124307 | 22.78° C | 26% | 1010.7 hPa | 0.25 mm | - | 995 W/m² | - |
| 1778124007 | 22.22° C | 27% | 1011.2 hPa | 0.51 mm | - | 993 W/m² | - |
| 1778123706 | 22.22° C | 27% | 1011.5 hPa | 0.51 mm | - | 993 W/m² | - |
| 1778123404 | 22.22° C | 26% | 1011.5 hPa | 0.51 mm | - | 995 W/m² | - |
* Rain latest hour (hover to see other rain measurements)
** Current wind speed in m/s (hover to see current wind gust speed)